Location: Pensacola
(30.4142°N, 87.2155°W)
Time: 17:17:25
(UTC-05:00)

Envisat - Visible Passes

Search period start: 17 April 2024 00:00
Search period end: 27 April 2024 00:00
Orbit: 762 x 764 km, 98.3° (Epoch: 17 April)

Date Brightness Start Highest point End Pass type
(mag) Time Alt. Az. Time Alt. Az. Time Alt. Az.
17 Apr 2.8 04:16:44 10° N 04:21:46 69° WNW 04:22:03 67° W visible
18 Apr 3.8 03:39:36 10° NNE 03:44:23 46° E 03:44:23 46° E visible
18 Apr 4.6 05:20:04 10° NNW 05:22:59 16° WNW 05:24:33 14° W visible
19 Apr 5.2 03:03:31 10° NE 03:06:43 18° E 03:06:43 18° E visible
19 Apr 3.5 04:41:21 10° N 04:45:59 37° WNW 04:46:53 34° W visible
20 Apr 2.8 04:03:43 10° NNE 04:08:48 87° ESE 04:09:13 76° S visible
21 Apr 4.3 03:26:52 10° NNE 03:31:26 34° E 03:31:33 34° E visible
21 Apr 4.3 05:06:24 10° NNW 05:10:07 21° WNW 05:11:42 18° W visible
22 Apr 5.5 02:51:32 10° ENE 02:53:52 13° E 02:53:52 13° E visible
22 Apr 3.2 04:28:09 10° N 04:33:03 51° WNW 04:34:03 44° WSW visible
23 Apr 3.2 03:50:47 10° NNE 03:55:48 63° E 03:56:22 59° SE visible
23 Apr 4.9 05:32:30 10° NW 05:34:10 12° WNW 05:35:49 10° W visible
24 Apr 4.8 03:14:16 10° NE 03:18:23 25° E 03:18:40 25° ESE visible
24 Apr 4.0 04:52:56 10° NNW 04:57:14 28° WNW 04:58:50 24° WSW visible
25 Apr 2.9 04:15:03 10° N 04:20:05 71° WNW 04:21:10 53° SW visible
26 Apr 3.8 03:37:55 10° NNE 03:42:47 45° E 03:43:29 42° ESE visible
26 Apr 4.7 05:18:18 10° NNW 05:21:18 16° WNW 05:23:38 12° W visible
